Regional Weather Roundup
Issued by NWS

Home | Current Version | Previous Version | Text Only | Print | Product List | Glossary Off
Versions: 1 2 3 4 5 6 7 8 9 10 11 12 13 14 15 16 17 18 19 20 21 22 23 24 25 26 27 28 29 30 31 32 33 34 35 36 37 38 39 40 41 42 43 44 45 46 47 48 49 50

000
ASUS43 KLOT 231110
RWRIL

ILLINOIS REGIONAL WEATHER ROUNDUP
NATIONAL WEATHER SERVICE CHICAGO/ROMEOVILLE IL
500 AM CST SUN NOV 23 2014

NOTE: "FAIR" INDICATES FEW OR NO CLOUDS BELOW 12,000 FEET WITH NO
SIGNIFICANT WEATHER AND/OR OBSTRUCTIONS TO VISIBILITY.

* THESE STATIONS ARE NOT UNDER NWS QUALITY CONTROL. THEY ALSO MAY NOT
  REPORT WEATHER SUCH AS PRECIPITATION OR FOG.

ILZ001-002-007-009-015-016-024-231200-
NORTHWEST ILLINOIS

CITY           SKY/WX    TMP DP  RH WIND       PRES   REMARKS
MOLINE         CLOUDY    52  48  86 S12       29.67F
STERLING*      CLOUDY    50  46  87 S7        29.70F
SAVANNA*       CLOUDY    49  47  94 SE7       29.68S FOG
$$

ILZ003-004-008-010-011-017-018-231200-
NORTH CENTRAL ILLINOIS

CITY           SKY/WX    TMP DP  RH WIND       PRES   REMARKS
ROCKFORD       CLOUDY    50  47  89 S14       29.73F FOG
FREEPORT*      CLOUDY    48  47  97 S14       29.71S FOG
ROCHELLE*      CLOUDY    47  46  95 S12       29.73F FOG
DE KALB*       CLOUDY    46  44  93 S14G20    29.75S
PERU*          CLOUDY    48  44  87 S10       29.74F
$$

ILZ005-006-012>014-019>023-231200-
NORTHEAST ILLINOIS

CITY           SKY/WX    TMP DP  RH WIND       PRES   REMARKS
CHICAGO-OHARE  CLOUDY    49  43  80 S13       29.76F
CHICAGO-MIDWAY CLOUDY    51  44  77 S12       29.77F
AURORA         CLOUDY    49  43  80 S10       29.75F
LANSING*       CLOUDY    49  43  80 S13       29.80F
JOLIET*        CLOUDY    49  42  78 S5        29.77F
WAUKEGAN       CLOUDY    50  45  83 S12       29.73F
DUPAGE AIRPORT CLOUDY    48  43  82 S12       29.75F
KANKAKEE*      CLOUDY    48  42  80 S12G21    29.79F
WHEELING       CLOUDY    49  44  83 S12       29.77F
MORRIS*        CLOUDY    47  44  89 SE6       29.75F
ROMEOVILLE*    CLOUDY    48  42  79 S10       29.76F
NORTHERLY ISL    N/A     50  42  74 S14         N/A
$$

LMZ740>746-231200-
SOUTHERN LAKE MICHIGAN

STATION/POSITION SKY/WX   TEMP    WIND        PRES    VSBY  WAVE
                          AIR SEA DIR/SP/G                  HT/PER
                          (F)     (DEG/KT/KT) (MB)    (MI)  (FT/S)
SOUTHERN BUOY              45 43  170/ 17/ 21 1008.2F         3/ 4
WAUKEGAN HARBOR            50     210/ 14/ 18   N/A
HARRISON CRIB              49     190/ 22/ 24   N/A
BURNHAM HARBOR             51     200/ 11/ 17   N/A
CALUMET HARBOR             50     180/ 11/ 16 1007.3F
MICHIGAN CITY              49     150/ 14/ 19   N/A
$$

ILZ025>027-034>036-040-047-049-050-058-095>099-231200-
WEST-CENTRAL ILLINOIS

CITY           SKY/WX    TMP DP  RH WIND       PRES   REMARKS
QUINCY         LGT RAIN  50  47  89 SE8       29.67F
GALESBURG*     CLOUDY    49  47  92 SE5       29.69F
MACOMB*        CLOUDY    47  46  95 S9        29.71F
JACKSONVILLE*  CLOUDY    53  45  74 S10       29.72F
PITTSFIELD*    CLOUDY    53  46  77 S12       29.71S
$$

ILZ028>032-037-038-041>044-048-051>054-059>061-231200-
CENTRAL ILLINOIS

CITY           SKY/WX    TMP DP  RH WIND       PRES   REMARKS
PONTIAC        MOCLDY    47  43  85 S12       29.76F
BLOOMINGTON    CLOUDY    47  43  86 S13       29.78F
DECATUR        CLOUDY    51  43  74 S14       29.79F
PEORIA         CLOUDY    51  43  74 S12       29.73F
LACON*         MOCLDY    49  43  80 S7        29.73F
LINCOLN*       CLOUDY    51  43  75 S8        29.75F
SPRINGFIELD    CLOUDY    53  44  71 S14       29.74F
TAYLORVILLE    CLOUDY    50  43  76 S14       29.77S
$$

ILZ033-039-045-046-055>057-062-063-231200-
EAST-CENTRAL ILLINOIS

CITY           SKY/WX    TMP DP  RH WIND       PRES   REMARKS
CHAMPAIGN      CLOUDY    48  42  80 S14       29.81F
DANVILLE*      CLOUDY    48  41  76 S12G22    29.81F
RANTOUL*       CLOUDY    47  43  85 SE9       29.81F
MATTOON        MOCLDY    48  39  71 S16       29.81F
PARIS*         MOCLDY    47  42  81 S13       29.84F
$$

ILZ079-100>102-231200-
SOUTHWEST ILLINOIS

CITY           SKY/WX    TMP DP  RH WIND       PRES   REMARKS
ALTON          CLOUDY    53  45  74 S10       29.77S
BELLEVILLE     MOCLDY    51  47  84 SE6       29.78R
CAHOKIA*       CLOUDY    52  44  74 SE8       29.77S
SPARTA*        CLOUDY    54  47  77 S10       29.79F
$$

ILZ064>066-069>071-074>076-080>082-084>086-088>090-092>094-231200-
SOUTH-CENTRAL ILLINOIS

CITY           SKY/WX    TMP DP  RH WIND       PRES   REMARKS
CARBONDALE     CLOUDY    53  45  74 SE6       29.82F
CAIRO*         CLOUDY    56  48  74 SE8       29.83S
EFFINGHAM*     PTCLDY    48  37  65 SE10      29.84R
MARION         CLOUDY    55  46  71 S5        29.83F
MT. VERNON     PTCLDY    50  41  71 SE5       29.84S
CENTRALIA*     PTCLDY    51  42  71 SE12      29.82R
SALEM*           N/A     52  42  70 SE6       29.83R
METROPOLIS*    CLOUDY    53  46  76 SE6       29.85F
$$

ILZ067-068-072-073-078-083-087-091-231200-
SOUTHEAST ILLINOIS

CITY           SKY/WX    TMP DP  RH WIND       PRES   REMARKS
LAWRENCEVILLE  PTCLDY    49  41  74 S14       29.90S
FLORA*         PTCLDY    48  41  76 SE12      29.85R
FAIRFIELD*     CLEAR     50  42  74 SE10      29.85R
HARRISBURG*    MOCLDY    47  43  84 E5        29.87F
ROBINSON*      PTCLDY    49  40  73 S10       29.88S
CARMI*         CLEAR     49  44  82 SE7       29.88R
$$

ABBREVIATIONS USED IN REMARKS
   TC - TEMPERATURE IN CELSIUS
  WCI - WIND CHILL INDEX
   HX - HEAT INDEX
  VSB - VISIBILITY
$$



USA.gov is the U.S. government's official web portal to all federal, state and local government web resources and services.